Location: Newark
(30.1000°N, 109.4667°E)
Time: 13:11:08
(UTC+00:00)

SR - Pass Details

Date: 26 February 2020
Orbit: 578 x 878 km, 66.7° (Epoch: 06 April)

Event Time Altitude Azimuth Distance (km) Brightness Sun altitude
Rises 07:51:11 0° 245° (WSW) 3,440 ? 32.5°
Reaches altitude 10° 07:54:28 10° 264° (W) 2,520 ? 31.9°
Maximum altitude 07:58:24 18° 306° (NW) 2,004 ? 31.2°
Drops below altitude 10° 08:02:20 10° 348° (NNW) 2,513 ? 30.5°
Sets 08:05:38 0° 7° (N) 3,426 ? 29.9°
